owner,sensor,date,latitude,longitude,vertical_datum,sea_water_temperature,qcFlag
Helix,ioos:station:wmo:42388:1,2022-03-01T00:01:00Z,27.7297,-91.1086,16.2,23.3,11111222
Helix,ioos:station:wmo:42388:1,2022-03-01T00:11:00Z,27.7297,-91.1086,16.3,23.3,11111222
Helix,ioos:station:wmo:42388:1,2022-03-01T00:21:00Z,27.7297,-91.1086,16.2,23.3,11111222
Helix,ioos:station:wmo:42388:1,2022-03-01T00:31:00Z,27.7297,-91.1086,16.2,23.3,11111222
Helix,ioos:station:wmo:42388:1,2022-03-01T00:41:00Z,27.7297,-91.1086,16.3,23.3,11111222
Helix,ioos:station:wmo:42388:1,2022-03-01T00:51:00Z,27.7297,-91.1086,16.2,23.3,11111222
Helix,ioos:station:wmo:42388:1,2022-03-01T01:01:00Z,27.7297,-91.1086,16.2,23.3,11111222
Helix,ioos:station:wmo:42388:1,2022-03-01T01:11:00Z,27.7297,-91.1086,16.2,23.3,11111222
Helix,ioos:station:wmo:42388:1,2022-03-01T01:21:00Z,27.7297,-91.1086,16.1,23.3,11111222
Helix,ioos:station:wmo:42388:1,2022-03-01T01:31:00Z,27.7297,-91.1086,16.3,23.2,11111222
Helix,ioos:station:wmo:42388:1,2022-03-01T01:41:00Z,27.7297,-91.1086,16.1,23.2,11111222
Helix,ioos:station:wmo:42388:1,2022-03-01T01:51:00Z,27.7297,-91.1086,16.2,23.2,11111222
Helix,ioos:station:wmo:42388:1,2022-03-01T02:01:00Z,27.7297,-91.1086,16.2,23.2,11111222
Helix,ioos:station:wmo:42388:1,2022-03-01T02:11:00Z,27.7297,-91.1086,16.0,23.2,11111222
Helix,ioos:station:wmo:42388:1,2022-03-01T02:21:00Z,27.7297,-91.1086,16.4,23.2,11111222
Helix,ioos:station:wmo:42388:1,2022-03-01T02:31:00Z,27.7297,-91.1086,16.1,23.2,11111222
Helix,ioos:station:wmo:42388:1,2022-03-01T02:41:00Z,27.7297,-91.1086,16.1,23.2,11111222
Helix,ioos:station:wmo:42388:1,2022-03-01T02:51:00Z,27.7297,-91.1086,16.3,23.1,11111222
Helix,ioos:station:wmo:42388:1,2022-03-01T03:01:00Z,27.7297,-91.1086,16.2,23.1,11111222
Helix,ioos:station:wmo:42388:1,2022-03-01T03:11:00Z,27.7297,-91.1086,16.4,23.1,11111222
Helix,ioos:station:wmo:42388:1,2022-03-01T03:21:00Z,27.7297,-91.1086,16.0,23.1,11111222
Helix,ioos:station:wmo:42388:1,2022-03-01T03:31:00Z,27.7297,-91.1086,16.0,23.1,11111222
Helix,ioos:station:wmo:42388:1,2022-03-01T03:41:00Z,27.7297,-91.1086,16.2,23.1,11111222
Helix,ioos:station:wmo:42388:1,2022-03-01T03:51:00Z,27.7297,-91.1086,15.9,23.0,11111222
Helix,ioos:station:wmo:42388:1,2022-03-01T04:01:00Z,27.7297,-91.1086,16.4,23.0,11111222
Helix,ioos:station:wmo:42388:1,2022-03-01T04:11:00Z,27.7297,-91.1086,16.3,23.0,11111222
Helix,ioos:station:wmo:42388:1,2022-03-01T04:21:00Z,27.7297,-91.1086,16.2,23.0,11111222
Helix,ioos:station:wmo:42388:1,2022-03-01T04:31:00Z,27.7297,-91.1086,16.3,23.0,11111222
Helix,ioos:station:wmo:42388:1,2022-03-01T04:41:00Z,27.7297,-91.1086,16.3,23.0,11111222
Helix,ioos:station:wmo:42388:1,2022-03-01T04:51:00Z,27.7297,-91.1086,16.2,22.9,11111222
Helix,ioos:station:wmo:42388:1,2022-03-01T05:01:00Z,27.7297,-91.1086,16.4,22.9,11111222
Helix,ioos:station:wmo:42388:1,2022-03-01T05:11:00Z,27.7297,-91.1086,16.3,22.9,11111222
Helix,ioos:station:wmo:42388:1,2022-03-01T05:21:00Z,27.7297,-91.1086,16.4,22.9,11111222
Helix,ioos:station:wmo:42388:1,2022-03-01T05:31:00Z,27.7297,-91.1086,16.4,22.9,11111222
Helix,ioos:station:wmo:42388:1,2022-03-01T05:41:00Z,27.7297,-91.1086,16.2,22.9,11111222
Helix,ioos:station:wmo:42388:1,2022-03-01T05:51:00Z,27.7297,-91.1086,16.1,22.9,11111222
Helix,ioos:station:wmo:42388:1,2022-03-01T06:02:00Z,27.7297,-91.1086,16.4,22.9,11111222
Helix,ioos:station:wmo:42388:1,2022-03-01T06:12:00Z,27.7297,-91.1086,16.5,22.9,11111222
Helix,ioos:station:wmo:42388:1,2022-03-01T06:22:00Z,27.7297,-91.1086,16.2,22.9,11111222
Helix,ioos:station:wmo:42388:1,2022-03-01T06:32:00Z,27.7297,-91.1086,16.3,22.9,11111222
Helix,ioos:station:wmo:42388:1,2022-03-01T06:42:00Z,27.7297,-91.1086,16.2,22.9,11111222
Helix,ioos:station:wmo:42388:1,2022-03-01T06:52:00Z,27.7297,-91.1086,16.2,22.9,11111222
Helix,ioos:station:wmo:42388:1,2022-03-01T07:02:00Z,27.7297,-91.1086,16.2,22.9,11111222
Helix,ioos:station:wmo:42388:1,2022-03-01T07:12:00Z,27.7297,-91.1086,16.1,22.8,11111222
Helix,ioos:station:wmo:42388:1,2022-03-01T07:22:00Z,27.7297,-91.1086,16.2,22.8,11111222
Helix,ioos:station:wmo:42388:1,2022-03-01T07:32:00Z,27.7297,-91.1086,16.4,22.8,11111222
Helix,ioos:station:wmo:42388:1,2022-03-01T07:42:00Z,27.7297,-91.1086,16.4,22.8,11111222
Helix,ioos:station:wmo:42388:1,2022-03-01T07:52:00Z,27.7297,-91.1086,16.4,22.8,11111222
Helix,ioos:station:wmo:42388:1,2022-03-01T08:02:00Z,27.7297,-91.1086,16.3,22.8,11111222
Helix,ioos:station:wmo:42388:1,2022-03-01T08:12:00Z,27.7297,-91.1086,16.3,22.8,11111222
Helix,ioos:station:wmo:42388:1,2022-03-01T08:22:00Z,27.7297,-91.1086,16.3,22.8,11111222
Helix,ioos:station:wmo:42388:1,2022-03-01T08:32:00Z,27.7297,-91.1086,16.3,22.8,11111222
Helix,ioos:station:wmo:42388:1,2022-03-01T08:42:00Z,27.7297,-91.1086,16.3,22.8,11111222
Helix,ioos:station:wmo:42388:1,2022-03-01T08:52:00Z,27.7297,-91.1086,16.3,22.8,11111222
Helix,ioos:station:wmo:42388:1,2022-03-01T09:02:00Z,27.7297,-91.1086,16.3,22.8,11111222
Helix,ioos:station:wmo:42388:1,2022-03-01T09:12:00Z,27.7297,-91.1086,16.4,22.8,11111222
Helix,ioos:station:wmo:42388:1,2022-03-01T09:22:00Z,27.7297,-91.1086,16.4,22.8,11111222
Helix,ioos:station:wmo:42388:1,2022-03-01T09:32:00Z,27.7297,-91.1086,16.4,22.8,11111222
Helix,ioos:station:wmo:42388:1,2022-03-01T09:42:00Z,27.7297,-91.1086,16.4,22.8,11111222
Helix,ioos:station:wmo:42388:1,2022-03-01T09:52:00Z,27.7297,-91.1086,16.6,22.8,11111222
Helix,ioos:station:wmo:42388:1,2022-03-01T10:02:00Z,27.7297,-91.1086,16.3,22.8,11111222
Helix,ioos:station:wmo:42388:1,2022-03-01T10:12:00Z,27.7297,-91.1086,16.6,22.7,11111222
Helix,ioos:station:wmo:42388:1,2022-03-01T10:22:00Z,27.7297,-91.1086,16.4,22.7,11111222
Helix,ioos:station:wmo:42388:1,2022-03-01T10:32:00Z,27.7297,-91.1086,16.4,22.7,11111222
Helix,ioos:station:wmo:42388:1,2022-03-01T10:42:00Z,27.7297,-91.1086,16.5,22.7,11111222
Helix,ioos:station:wmo:42388:1,2022-03-01T10:52:00Z,27.7297,-91.1086,16.4,22.7,11111222
Helix,ioos:station:wmo:42388:1,2022-03-01T11:02:00Z,27.7297,-91.1086,16.5,22.7,11111222
Helix,ioos:station:wmo:42388:1,2022-03-01T11:12:00Z,27.7297,-91.1086,16.5,22.7,11111222
Helix,ioos:station:wmo:42388:1,2022-03-01T11:22:00Z,27.7297,-91.1086,16.3,22.7,11111222
Helix,ioos:station:wmo:42388:1,2022-03-01T11:32:00Z,27.7297,-91.1086,16.3,22.7,11111222
Helix,ioos:station:wmo:42388:1,2022-03-01T11:42:00Z,27.7297,-91.1086,16.6,22.7,11111222
Helix,ioos:station:wmo:42388:1,2022-03-01T11:52:00Z,27.7297,-91.1086,16.7,22.6,11111222
Helix,ioos:station:wmo:42388:1,2022-03-01T12:02:00Z,27.7297,-91.1086,16.4,22.6,11111222
Helix,ioos:station:wmo:42388:1,2022-03-01T12:12:00Z,27.7297,-91.1086,16.3,22.6,11111222
Helix,ioos:station:wmo:42388:1,2022-03-01T12:22:00Z,27.7297,-91.1086,16.5,22.6,11111222
Helix,ioos:station:wmo:42388:1,2022-03-01T12:32:00Z,27.7297,-91.1086,16.4,22.6,11111222
Helix,ioos:station:wmo:42388:1,2022-03-01T12:42:00Z,27.7297,-91.1086,16.4,22.6,11111222
Helix,ioos:station:wmo:42388:1,2022-03-01T12:52:00Z,27.7297,-91.1086,16.5,22.6,11111222
Helix,ioos:station:wmo:42388:1,2022-03-01T13:02:00Z,27.7297,-91.1086,16.4,22.6,11111222
Helix,ioos:station:wmo:42388:1,2022-03-01T13:12:00Z,27.7297,-91.1086,16.5,22.6,11111222
Helix,ioos:station:wmo:42388:1,2022-03-01T13:22:00Z,27.7297,-91.1086,16.7,22.6,11111222
Helix,ioos:station:wmo:42388:1,2022-03-01T13:32:00Z,27.7297,-91.1086,16.5,22.6,11111222
Helix,ioos:station:wmo:42388:1,2022-03-01T13:42:00Z,27.7297,-91.1086,16.5,22.6,11111222
Helix,ioos:station:wmo:42388:1,2022-03-01T13:52:00Z,27.7297,-91.1086,16.4,22.6,11111222
Helix,ioos:station:wmo:42388:1,2022-03-01T14:02:00Z,27.7297,-91.1086,16.3,22.6,11111222
Helix,ioos:station:wmo:42388:1,2022-03-01T14:12:00Z,27.7297,-91.1086,16.6,22.6,11111222
Helix,ioos:station:wmo:42388:1,2022-03-01T14:22:00Z,27.7297,-91.1086,16.8,22.6,11111222
Helix,ioos:station:wmo:42388:1,2022-03-01T14:32:00Z,27.7297,-91.1086,16.6,22.5,11111222
Helix,ioos:station:wmo:42388:1,2022-03-01T14:42:00Z,27.7297,-91.1086,16.6,22.5,11111222
Helix,ioos:station:wmo:42388:1,2022-03-01T14:52:00Z,27.7297,-91.1086,16.7,22.5,11111222
Helix,ioos:station:wmo:42388:1,2022-03-01T15:02:00Z,27.7297,-91.1086,16.6,22.5,11111222
Helix,ioos:station:wmo:42388:1,2022-03-01T15:12:00Z,27.7297,-91.1086,16.8,22.5,11111222
Helix,ioos:station:wmo:42388:1,2022-03-01T15:22:00Z,27.7297,-91.1086,16.6,22.5,11111222
Helix,ioos:station:wmo:42388:1,2022-03-01T15:32:00Z,27.7297,-91.1086,16.4,22.5,11111222
Helix,ioos:station:wmo:42388:1,2022-03-01T15:42:00Z,27.7297,-91.1086,16.5,22.5,11111222
Helix,ioos:station:wmo:42388:1,2022-03-01T15:52:00Z,27.7297,-91.1086,16.6,22.5,11111222
Helix,ioos:station:wmo:42388:1,2022-03-01T16:02:00Z,27.7297,-91.1086,16.3,22.5,11111222
Helix,ioos:station:wmo:42388:1,2022-03-01T16:12:00Z,27.7297,-91.1086,16.4,22.5,11111222
Helix,ioos:station:wmo:42388:1,2022-03-01T16:22:00Z,27.7297,-91.1086,16.6,22.5,11111222
Helix,ioos:station:wmo:42388:1,2022-03-01T16:32:00Z,27.7297,-91.1086,16.4,22.6,11111222
Helix,ioos:station:wmo:42388:1,2022-03-01T16:42:00Z,27.7297,-91.1086,16.6,22.6,11111222
Helix,ioos:station:wmo:42388:1,2022-03-01T16:52:00Z,27.7297,-91.1086,16.5,22.6,11111222
Helix,ioos:station:wmo:42388:1,2022-03-01T17:02:00Z,27.7297,-91.1086,16.4,22.6,11111222
Helix,ioos:station:wmo:42388:1,2022-03-01T17:12:00Z,27.7297,-91.1086,16.5,22.6,11111222
Helix,ioos:station:wmo:42388:1,2022-03-01T17:22:00Z,27.7297,-91.1086,16.3,22.6,11111222
Helix,ioos:station:wmo:42388:1,2022-03-01T17:32:00Z,27.7297,-91.1086,16.5,22.6,11111222
Helix,ioos:station:wmo:42388:1,2022-03-01T17:42:00Z,27.7297,-91.1086,16.5,22.6,11111222
Helix,ioos:station:wmo:42388:1,2022-03-01T17:52:00Z,27.7297,-91.1086,16.4,22.6,11111222
Helix,ioos:station:wmo:42388:1,2022-03-01T18:02:00Z,27.7297,-91.1086,16.6,22.6,11111222
Helix,ioos:station:wmo:42388:1,2022-03-01T18:12:00Z,27.7297,-91.1086,16.7,22.6,11111222
Helix,ioos:station:wmo:42388:1,2022-03-01T18:22:00Z,27.7297,-91.1086,16.5,22.6,11111222
Helix,ioos:station:wmo:42388:1,2022-03-01T18:32:00Z,27.7297,-91.1086,16.4,22.6,11111222
Helix,ioos:station:wmo:42388:1,2022-03-01T18:42:00Z,27.7297,-91.1086,16.6,22.6,11111222
Helix,ioos:station:wmo:42388:1,2022-03-01T18:52:00Z,27.7297,-91.1086,16.6,22.6,11111222
Helix,ioos:station:wmo:42388:1,2022-03-01T19:02:00Z,27.7297,-91.1086,16.5,22.6,11111222
Helix,ioos:station:wmo:42388:1,2022-03-01T19:12:00Z,27.7297,-91.1086,16.4,22.6,11111222
Helix,ioos:station:wmo:42388:1,2022-03-01T19:22:00Z,27.7297,-91.1086,16.6,22.6,11111222
Helix,ioos:station:wmo:42388:1,2022-03-01T19:32:00Z,27.7297,-91.1086,16.4,22.6,11111222
Helix,ioos:station:wmo:42388:1,2022-03-01T19:42:00Z,27.7297,-91.1086,16.2,22.6,11111222
Helix,ioos:station:wmo:42388:1,2022-03-01T19:52:00Z,27.7297,-91.1086,16.5,22.6,11111222
Helix,ioos:station:wmo:42388:1,2022-03-01T20:02:00Z,27.7297,-91.1086,16.5,22.6,11111222
Helix,ioos:station:wmo:42388:1,2022-03-01T20:12:00Z,27.7297,-91.1086,16.7,22.6,11111222
Helix,ioos:station:wmo:42388:1,2022-03-01T20:22:00Z,27.7297,-91.1086,16.5,22.6,11111222
Helix,ioos:station:wmo:42388:1,2022-03-01T20:32:00Z,27.7297,-91.1086,16.6,22.6,11111222
Helix,ioos:station:wmo:42388:1,2022-03-01T20:42:00Z,27.7297,-91.1086,16.4,22.6,11111222
Helix,ioos:station:wmo:42388:1,2022-03-01T20:52:00Z,27.7297,-91.1086,16.4,22.6,11111222
Helix,ioos:station:wmo:42388:1,2022-03-01T21:02:00Z,27.7297,-91.1086,16.5,22.6,11111222
Helix,ioos:station:wmo:42388:1,2022-03-01T21:12:00Z,27.7297,-91.1086,16.4,22.7,11111222
Helix,ioos:station:wmo:42388:1,2022-03-01T21:22:00Z,27.7297,-91.1086,16.5,22.7,11111222
Helix,ioos:station:wmo:42388:1,2022-03-01T21:32:00Z,27.7297,-91.1086,16.6,22.7,11111222
Helix,ioos:station:wmo:42388:1,2022-03-01T21:42:00Z,27.7297,-91.1086,16.5,22.7,11111222
Helix,ioos:station:wmo:42388:1,2022-03-01T21:52:00Z,27.7297,-91.1086,16.3,22.8,11111222
Helix,ioos:station:wmo:42388:1,2022-03-01T22:02:00Z,27.7297,-91.1086,16.1,22.8,11111222
Helix,ioos:station:wmo:42388:1,2022-03-01T22:12:00Z,27.7297,-91.1086,16.4,22.8,11111222
Helix,ioos:station:wmo:42388:1,2022-03-01T22:22:00Z,27.7297,-91.1086,16.3,22.8,11111222
Helix,ioos:station:wmo:42388:1,2022-03-01T22:32:00Z,27.7297,-91.1086,16.1,22.8,11111222
Helix,ioos:station:wmo:42388:1,2022-03-01T22:42:00Z,27.7297,-91.1086,16.2,22.8,11111222
Helix,ioos:station:wmo:42388:1,2022-03-01T22:52:00Z,27.7297,-91.1086,16.2,22.8,11111222
Helix,ioos:station:wmo:42388:1,2022-03-01T23:02:00Z,27.7297,-91.1086,16.3,22.8,11111222
Helix,ioos:station:wmo:42388:1,2022-03-01T23:13:00Z,27.7297,-91.1086,16.1,22.9,11111222
Helix,ioos:station:wmo:42388:1,2022-03-01T23:23:00Z,27.7297,-91.1086,16.0,22.9,11111222
Helix,ioos:station:wmo:42388:1,2022-03-01T23:33:00Z,27.7297,-91.1086,16.2,22.9,11111222
Helix,ioos:station:wmo:42388:1,2022-03-01T23:43:00Z,27.7297,-91.1086,16.2,22.9,11111222
Helix,ioos:station:wmo:42388:1,2022-03-01T23:53:00Z,27.7297,-91.1086,16.3,22.9,11111222
Helix,ioos:station:wmo:42388:1,2022-03-02T00:03:00Z,27.7297,-91.1086,16.0,22.9,11111222
Helix,ioos:station:wmo:42388:1,2022-03-02T00:13:00Z,27.7297,-91.1086,16.3,22.9,11111222
Helix,ioos:station:wmo:42388:1,2022-03-02T00:23:00Z,27.7297,-91.1086,16.3,22.9,11111222
Helix,ioos:station:wmo:42388:1,2022-03-02T00:33:00Z,27.7297,-91.1086,16.5,22.9,11111222
Helix,ioos:station:wmo:42388:1,2022-03-02T00:43:00Z,27.7297,-91.1086,16.2,22.9,11111222
Helix,ioos:station:wmo:42388:1,2022-03-02T00:53:00Z,27.7297,-91.1086,16.2,22.9,11111222
Helix,ioos:station:wmo:42388:1,2022-03-02T01:03:00Z,27.7297,-91.1086,16.3,22.9,11111222
Helix,ioos:station:wmo:42388:1,2022-03-02T01:13:00Z,27.7297,-91.1086,16.4,23.0,11111222
Helix,ioos:station:wmo:42388:1,2022-03-02T01:23:00Z,27.7297,-91.1086,16.2,23.0,11111222
Helix,ioos:station:wmo:42388:1,2022-03-02T01:33:00Z,27.7297,-91.1086,16.4,23.0,11111222
Helix,ioos:station:wmo:42388:1,2022-03-02T01:43:00Z,27.7297,-91.1086,16.2,23.0,11111222
Helix,ioos:station:wmo:42388:1,2022-03-02T01:53:00Z,27.7297,-91.1086,16.2,23.0,11111222
Helix,ioos:station:wmo:42388:1,2022-03-02T02:03:00Z,27.7297,-91.1086,16.1,23.0,11111222
Helix,ioos:station:wmo:42388:1,2022-03-02T02:13:00Z,27.7297,-91.1086,16.2,23.0,11111222
Helix,ioos:station:wmo:42388:1,2022-03-02T02:23:00Z,27.7297,-91.1086,16.2,23.1,11111222
Helix,ioos:station:wmo:42388:1,2022-03-02T02:33:00Z,27.7297,-91.1086,16.3,23.1,11111222
Helix,ioos:station:wmo:42388:1,2022-03-02T02:43:00Z,27.7297,-91.1086,16.2,23.1,11111222
Helix,ioos:station:wmo:42388:1,2022-03-02T02:53:00Z,27.7297,-91.1086,16.3,23.1,11111222
Helix,ioos:station:wmo:42388:1,2022-03-02T03:03:00Z,27.7297,-91.1086,16.4,23.1,11111222
Helix,ioos:station:wmo:42388:1,2022-03-02T03:13:00Z,27.7297,-91.1086,16.1,23.1,11111222
Helix,ioos:station:wmo:42388:1,2022-03-02T03:23:00Z,27.7297,-91.1086,16.2,23.1,11111222
Helix,ioos:station:wmo:42388:1,2022-03-02T03:33:00Z,27.7297,-91.1086,16.2,23.2,11111222
Helix,ioos:station:wmo:42388:1,2022-03-02T03:43:00Z,27.7297,-91.1086,16.2,23.1,11111222
Helix,ioos:station:wmo:42388:1,2022-03-02T03:53:00Z,27.7297,-91.1086,16.2,23.2,11111222
Helix,ioos:station:wmo:42388:1,2022-03-02T04:03:00Z,27.7297,-91.1086,16.0,23.2,11111222
Helix,ioos:station:wmo:42388:1,2022-03-02T04:13:00Z,27.7297,-91.1086,16.2,23.2,11111222
Helix,ioos:station:wmo:42388:1,2022-03-02T04:23:00Z,27.7297,-91.1086,16.0,23.2,11111222
Helix,ioos:station:wmo:42388:1,2022-03-02T04:33:00Z,27.7297,-91.1086,16.2,23.2,11111222
Helix,ioos:station:wmo:42388:1,2022-03-02T04:43:00Z,27.7297,-91.1086,16.0,23.1,11111222
Helix,ioos:station:wmo:42388:1,2022-03-02T04:53:00Z,27.7297,-91.1086,16.1,23.1,11111222
Helix,ioos:station:wmo:42388:1,2022-03-02T05:03:00Z,27.7297,-91.1086,16.1,23.1,11111222
Helix,ioos:station:wmo:42388:1,2022-03-02T05:13:00Z,27.7297,-91.1086,16.1,23.1,11111222
Helix,ioos:station:wmo:42388:1,2022-03-02T05:23:00Z,27.7297,-91.1086,16.2,23.1,11111222
Helix,ioos:station:wmo:42388:1,2022-03-02T05:33:00Z,27.7297,-91.1086,16.2,23.1,11111222
Helix,ioos:station:wmo:42388:1,2022-03-02T05:43:00Z,27.7297,-91.1086,16.1,23.1,11111222
Helix,ioos:station:wmo:42388:1,2022-03-02T05:53:00Z,27.7297,-91.1086,16.0,23.1,11111222
Helix,ioos:station:wmo:42388:1,2022-03-02T06:03:00Z,27.7297,-91.1086,16.1,23.1,11111222
Helix,ioos:station:wmo:42388:1,2022-03-02T06:13:00Z,27.7297,-91.1086,16.2,23.1,11111222
Helix,ioos:station:wmo:42388:1,2022-03-02T06:23:00Z,27.7297,-91.1086,16.0,23.1,11111222
Helix,ioos:station:wmo:42388:1,2022-03-02T06:33:00Z,27.7297,-91.1086,16.3,23.1,11111222
Helix,ioos:station:wmo:42388:1,2022-03-02T06:43:00Z,27.7297,-91.1086,16.3,23.1,11111222
Helix,ioos:station:wmo:42388:1,2022-03-02T06:53:00Z,27.7297,-91.1086,16.2,23.1,11111222
Helix,ioos:station:wmo:42388:1,2022-03-02T07:03:00Z,27.7297,-91.1086,16.3,23.1,11111222
Helix,ioos:station:wmo:42388:1,2022-03-02T07:13:00Z,27.7297,-91.1086,16.1,23.1,11111222
Helix,ioos:station:wmo:42388:1,2022-03-02T07:23:00Z,27.7297,-91.1086,16.2,23.1,11111222
Helix,ioos:station:wmo:42388:1,2022-03-02T07:33:00Z,27.7297,-91.1086,16.2,23.0,11111222
Helix,ioos:station:wmo:42388:1,2022-03-02T07:43:00Z,27.7297,-91.1086,16.1,23.0,11111222
Helix,ioos:station:wmo:42388:1,2022-03-02T07:53:00Z,27.7297,-91.1086,16.2,23.0,11111222
Helix,ioos:station:wmo:42388:1,2022-03-02T08:03:00Z,27.7297,-91.1086,16.2,23.0,11111222
Helix,ioos:station:wmo:42388:1,2022-03-02T08:13:00Z,27.7297,-91.1086,16.2,23.0,11111222
Helix,ioos:station:wmo:42388:1,2022-03-02T08:23:00Z,27.7297,-91.1086,16.1,23.0,11111222
Helix,ioos:station:wmo:42388:1,2022-03-02T08:33:00Z,27.7297,-91.1086,16.1,23.0,11111222
Helix,ioos:station:wmo:42388:1,2022-03-02T08:43:00Z,27.7297,-91.1086,16.2,23.0,11111222
Helix,ioos:station:wmo:42388:1,2022-03-02T08:53:00Z,27.7297,-91.1086,16.2,23.0,11111222
Helix,ioos:station:wmo:42388:1,2022-03-02T09:03:00Z,27.7297,-91.1086,16.3,23.0,11111222
Helix,ioos:station:wmo:42388:1,2022-03-02T09:13:00Z,27.7297,-91.1086,16.2,23.0,11111222
Helix,ioos:station:wmo:42388:1,2022-03-02T09:23:00Z,27.7297,-91.1086,16.2,22.9,11111222
Helix,ioos:station:wmo:42388:1,2022-03-02T09:33:00Z,27.7297,-91.1086,16.3,22.9,11111222
Helix,ioos:station:wmo:42388:1,2022-03-02T09:43:00Z,27.7297,-91.1086,16.2,22.9,11111222
Helix,ioos:station:wmo:42388:1,2022-03-02T09:53:00Z,27.7297,-91.1086,16.4,22.9,11111222
Helix,ioos:station:wmo:42388:1,2022-03-02T10:03:00Z,27.7297,-91.1086,16.4,22.9,11111222
Helix,ioos:station:wmo:42388:1,2022-03-02T10:13:00Z,27.7297,-91.1086,16.3,22.9,11111222
Helix,ioos:station:wmo:42388:1,2022-03-02T10:23:00Z,27.7297,-91.1086,16.3,22.9,11111222
Helix,ioos:station:wmo:42388:1,2022-03-02T10:33:00Z,27.7297,-91.1086,16.3,22.9,11111222
Helix,ioos:station:wmo:42388:1,2022-03-02T10:43:00Z,27.7297,-91.1086,16.1,22.9,11111222
Helix,ioos:station:wmo:42388:1,2022-03-02T10:53:00Z,27.7297,-91.1086,16.0,22.9,11111222
Helix,ioos:station:wmo:42388:1,2022-03-02T11:03:00Z,27.7297,-91.1086,16.4,22.9,11111222
Helix,ioos:station:wmo:42388:1,2022-03-02T11:13:00Z,27.7297,-91.1086,16.0,22.9,11111222
Helix,ioos:station:wmo:42388:1,2022-03-02T11:23:00Z,27.7297,-91.1086,16.3,22.9,11111222
Helix,ioos:station:wmo:42388:1,2022-03-02T11:33:00Z,27.7297,-91.1086,16.3,22.9,11111222
Helix,ioos:station:wmo:42388:1,2022-03-02T11:43:00Z,27.7297,-91.1086,16.2,22.9,11111222
Helix,ioos:station:wmo:42388:1,2022-03-02T11:53:00Z,27.7297,-91.1086,16.2,22.9,11111222
Helix,ioos:station:wmo:42388:1,2022-03-02T12:03:00Z,27.7297,-91.1086,16.3,22.8,11111222
Helix,ioos:station:wmo:42388:1,2022-03-02T12:13:00Z,27.7297,-91.1086,16.3,22.8,11111222
Helix,ioos:station:wmo:42388:1,2022-03-02T12:23:00Z,27.7297,-91.1086,15.8,22.8,11111222
Helix,ioos:station:wmo:42388:1,2022-03-02T12:33:00Z,27.7297,-91.1086,16.2,22.9,11111222
Helix,ioos:station:wmo:42388:1,2022-03-02T12:43:00Z,27.7297,-91.1086,16.1,22.9,11111222
Helix,ioos:station:wmo:42388:1,2022-03-02T12:53:00Z,27.7297,-91.1086,16.4,22.9,11111222
Helix,ioos:station:wmo:42388:1,2022-03-02T13:03:00Z,27.7297,-91.1086,16.1,23.0,11111222
Helix,ioos:station:wmo:42388:1,2022-03-02T13:13:00Z,27.7297,-91.1086,16.4,23.0,11111222
Helix,ioos:station:wmo:42388:1,2022-03-02T13:23:00Z,27.7297,-91.1086,16.3,23.0,11111222
Helix,ioos:station:wmo:42388:1,2022-03-02T13:33:00Z,27.7297,-91.1086,16.1,23.0,11111222
Helix,ioos:station:wmo:42388:1,2022-03-02T13:43:00Z,27.7297,-91.1086,16.1,23.1,11111222
Helix,ioos:station:wmo:42388:1,2022-03-02T13:53:00Z,27.7297,-91.1086,16.3,23.1,11111222
Helix,ioos:station:wmo:42388:1,2022-03-02T14:03:00Z,27.7297,-91.1086,15.9,23.1,11111222
Helix,ioos:station:wmo:42388:1,2022-03-02T14:13:00Z,27.7297,-91.1086,16.0,23.2,11111222
Helix,ioos:station:wmo:42388:1,2022-03-02T14:23:00Z,27.7297,-91.1086,16.1,23.2,11111222
Helix,ioos:station:wmo:42388:1,2022-03-02T14:33:00Z,27.7297,-91.1086,16.0,23.3,11111222
Helix,ioos:station:wmo:42388:1,2022-03-02T14:43:00Z,27.7297,-91.1086,15.9,23.3,11111222
Helix,ioos:station:wmo:42388:1,2022-03-02T14:53:00Z,27.7297,-91.1086,16.2,23.3,11111222
Helix,ioos:station:wmo:42388:1,2022-03-02T15:03:00Z,27.7297,-91.1086,16.1,23.3,11111222
Helix,ioos:station:wmo:42388:1,2022-03-02T15:13:00Z,27.7297,-91.1086,16.2,23.4,11111222
Helix,ioos:station:wmo:42388:1,2022-03-02T15:23:00Z,27.7297,-91.1086,16.2,23.4,11111222
Helix,ioos:station:wmo:42388:1,2022-03-02T15:33:00Z,27.7297,-91.1086,16.2,23.4,11111222
Helix,ioos:station:wmo:42388:1,2022-03-02T15:43:00Z,27.7297,-91.1086,16.2,23.4,11111222
Helix,ioos:station:wmo:42388:1,2022-03-02T15:53:00Z,27.7297,-91.1086,16.0,23.5,11111222
Helix,ioos:station:wmo:42388:1,2022-03-02T16:03:00Z,27.7297,-91.1086,16.2,23.5,11111222
Helix,ioos:station:wmo:42388:1,2022-03-02T16:13:00Z,27.7297,-91.1086,16.2,23.5,11111222
Helix,ioos:station:wmo:42388:1,2022-03-02T16:23:00Z,27.7297,-91.1086,16.3,23.5,11111222
Helix,ioos:station:wmo:42388:1,2022-03-02T16:34:00Z,27.7297,-91.1086,16.2,23.5,11111222
Helix,ioos:station:wmo:42388:1,2022-03-02T16:44:00Z,27.7297,-91.1086,16.5,23.5,11111222
Helix,ioos:station:wmo:42388:1,2022-03-02T16:54:00Z,27.7297,-91.1086,16.3,23.5,11111222
Helix,ioos:station:wmo:42388:1,2022-03-02T17:04:00Z,27.7297,-91.1086,16.2,23.6,11111222
Helix,ioos:station:wmo:42388:1,2022-03-02T17:14:00Z,27.7297,-91.1086,16.2,23.6,11111222
Helix,ioos:station:wmo:42388:1,2022-03-02T17:24:00Z,27.7297,-91.1086,16.4,23.6,11111222
Helix,ioos:station:wmo:42388:1,2022-03-02T17:34:00Z,27.7297,-91.1086,16.2,23.6,11111222
Helix,ioos:station:wmo:42388:1,2022-03-02T17:44:00Z,27.7297,-91.1086,16.3,23.6,11111222
Helix,ioos:station:wmo:42388:1,2022-03-02T17:54:00Z,27.7297,-91.1086,16.1,23.6,11111222
Helix,ioos:station:wmo:42388:1,2022-03-02T18:04:00Z,27.7297,-91.1086,16.3,23.6,11111222
Helix,ioos:station:wmo:42388:1,2022-03-02T18:14:00Z,27.7297,-91.1086,16.3,23.6,11111222
Helix,ioos:station:wmo:42388:1,2022-03-02T18:24:00Z,27.7297,-91.1086,16.5,23.6,11111222
Helix,ioos:station:wmo:42388:1,2022-03-02T18:34:00Z,27.7297,-91.1086,16.3,23.6,11111222
Helix,ioos:station:wmo:42388:1,2022-03-02T18:44:00Z,27.7297,-91.1086,16.4,23.6,11111222
Helix,ioos:station:wmo:42388:1,2022-03-02T18:54:00Z,27.7297,-91.1086,16.3,23.7,11111222
Helix,ioos:station:wmo:42388:1,2022-03-02T19:04:00Z,27.7297,-91.1086,16.4,23.7,11111222
Helix,ioos:station:wmo:42388:1,2022-03-02T19:14:00Z,27.7297,-91.1086,16.2,23.7,11111222
Helix,ioos:station:wmo:42388:1,2022-03-02T19:24:00Z,27.7297,-91.1086,16.3,23.7,11111222
Helix,ioos:station:wmo:42388:1,2022-03-02T19:34:00Z,27.7297,-91.1086,16.1,23.7,11111222
Helix,ioos:station:wmo:42388:1,2022-03-02T19:44:00Z,27.7297,-91.1086,16.1,23.7,11111222
Helix,ioos:station:wmo:42388:1,2022-03-02T19:54:00Z,27.7297,-91.1086,16.2,23.7,11111222
Helix,ioos:station:wmo:42388:1,2022-03-02T20:04:00Z,27.7297,-91.1086,16.1,23.7,11111222
Helix,ioos:station:wmo:42388:1,2022-03-02T20:14:00Z,27.7297,-91.1086,16.2,23.7,11111222
Helix,ioos:station:wmo:42388:1,2022-03-02T20:24:00Z,27.7297,-91.1086,16.4,23.7,11111222
Helix,ioos:station:wmo:42388:1,2022-03-02T20:34:00Z,27.7297,-91.1086,16.3,23.7,11111222